TimeEDT,TemperatureF,Dew PointF,Humidity,Sea Level PressureIn,VisibilityMPH,Wind Direction,Wind SpeedMPH,Gust SpeedMPH,PrecipitationIn,Events,Conditions,WindDirDegrees,DateUTC
12:54 AM,50.0,37.9,63,29.78,10.0,West,6.9,-,N/A,,Clear,270,2012-11-01 04:54:00
1:54 AM,46.0,37.9,73,29.78,10.0,WSW,4.6,-,N/A,,Clear,250,2012-11-01 05:54:00
2:54 AM,44.1,37.9,79,29.78,10.0,West,5.8,-,N/A,,Clear,260,2012-11-01 06:54:00
3:54 AM,46.0,36.0,68,29.77,10.0,WNW,3.5,-,N/A,,Clear,290,2012-11-01 07:54:00
4:54 AM,41.0,36.0,82,29.77,10.0,Calm,Calm,-,N/A,,Clear,0,2012-11-01 08:54:00
5:54 AM,39.0,35.1,86,29.78,10.0,Calm,Calm,-,N/A,,Clear,0,2012-11-01 09:54:00
6:54 AM,41.0,36.0,82,29.78,10.0,Calm,Calm,-,N/A,,Scattered Clouds,0,2012-11-01 10:54:00
7:54 AM,39.9,36.0,86,29.80,10.0,WSW,3.5,-,N/A,,Partly Cloudy,240,2012-11-01 11:54:00
8:54 AM,48.0,37.9,68,29.81,10.0,West,8.1,-,N/A,,Clear,270,2012-11-01 12:54:00
9:54 AM,53.1,37.0,55,29.82,10.0,West,6.9,-,N/A,,Clear,280,2012-11-01 13:54:00
10:54 AM,55.9,36.0,47,29.82,10.0,WNW,15.0,19.6,N/A,,Clear,300,2012-11-01 14:54:00
11:54 AM,57.0,37.0,47,29.80,10.0,West,9.2,-,N/A,,Clear,280,2012-11-01 15:54:00
12:54 PM,59.0,36.0,42,29.77,10.0,West,13.8,-,N/A,,Clear,280,2012-11-01 16:54:00
1:54 PM,60.8,35.6,39,29.75,10.0,WSW,16.1,20.7,N/A,,Partly Cloudy,250,2012-11-01 17:54:00
2:54 PM,61.0,34.0,36,29.72,10.0,WSW,11.5,18.4,N/A,,Partly Cloudy,250,2012-11-01 18:54:00
3:54 PM,59.0,35.1,41,29.73,10.0,WNW,8.1,-,N/A,,Partly Cloudy,290,2012-11-01 19:54:00
4:54 PM,59.0,36.0,42,29.73,10.0,West,13.8,-,N/A,,Scattered Clouds,280,2012-11-01 20:54:00
5:54 PM,57.9,37.0,46,29.75,10.0,NW,9.2,-,N/A,,Overcast,310,2012-11-01 21:54:00
6:54 PM,55.9,37.9,51,29.78,10.0,WNW,6.9,-,N/A,,Overcast,300,2012-11-01 22:54:00
7:54 PM,54.0,39.9,59,29.81,10.0,WSW,5.8,-,N/A,,Overcast,250,2012-11-01 23:54:00
8:54 PM,53.1,37.9,57,29.82,10.0,West,8.1,-,N/A,,Scattered Clouds,280,2012-11-02 00:54:00
9:54 PM,51.1,37.9,61,29.83,10.0,West,8.1,-,N/A,,Clear,270,2012-11-02 01:54:00
10:54 PM,48.0,37.9,68,29.85,10.0,West,6.9,-,N/A,,Clear,260,2012-11-02 02:54:00
11:54 PM,44.1,37.9,79,29.86,10.0,West,5.8,-,N/A,,Clear,260,2012-11-02 03:54:00